Regional Weather Roundup
Issued by NWS Midland/Odessa, TX

Skip options and go directly to product.
Home | Oldest Version | Previous Version | Current Version | All | Text Only | Save Text | Print | Product List | Glossary On

Skip product version selection by date and time.   
718
ASUS44 KMAF 291010
RWRMAF
MIDLAND AREA WEATHER ROUNDUP
NATIONAL WEATHER SERVICE MIDLAND TX
400 AM CST THU JAN 29 2015

...IN SOUTHWEST TEXAS AND SOUTHEAST NEW MEXICO...

CITY           SKY/WX    TMP DP  RH WIND       PRES   REMARKS
ALPINE         CLEAR     45  41  85 SW7       30.25S
ANDREWS        FAIR      45  38  77 NW3       30.16S
ARTESIA        CLOUDY    45  39  81 N7        30.20R
BIG SPRING     PTCLDY    48  40  73 N9        30.17S
CARLSBAD       PTCLDY    51  37  58 NW15      30.17R
DRYDEN           N/A     56  40  55 N9        30.10R
FORT STOCKTON  CLEAR     55  46  71 SW9       30.13R
GUAD PASS      PTCLDY    54  33  45 SW6       30.24R
HOBBS          CLEAR     39  37  93 NW9       30.18S WCI  33
MARFA          PTCLDY    39  36  87 N9        30.23S WCI  33
MIDLAND AIRPK  PTCLDY    50  43  76 N3        30.15S
MIDLAND INTL   CLEAR     46  42  86 N8        30.14R
ODESSA         CLEAR     48  40  73 N8        30.15R
PECOS          CLEAR     42  39  90 W3        30.15R
PRESIDIO       FAIR      56  46  70 N6        30.13S
SEMINOLE       CLEAR     41  36  81 NW6       30.17F WCI  37
SNYDER         PTCLDY   N/A N/A N/A NE3       30.16S
WINK           CLEAR     44  38  79 N8        30.13R WCI  39
$$
...OTHER STATIONS IN TEXAS...

CITY           SKY/WX    TMP DP  RH WIND       PRES   REMARKS
ABILENE        PTCLDY    51  42  71 S8        30.14S
AMARILLO       CLOUDY    44  34  67 N15       30.25S WCI  37
AUSTIN         PTCLDY    46  46 100 CALM      30.14R
BROWNSVILLE    CLEAR     59  58  96 SE6       30.13F
CORPUS CHRISTI PTCLDY    55  54  96 SE8       30.13F
DALLAS FTW     MOCLDY    60  39  45 SW6       30.07R
DEL RIO        CLEAR     56  43  61 E9        30.09S
EL PASO        MOCLDY    45  37  73 NE5       30.18S
HOUSTON INT    PTCLDY    53  53 100 CALM      30.15F FOG
LUBBOCK        PTCLDY    45  34  65 NE10      30.20R WCI  40
SAN ANGELO     PTCLDY    47  41  80 W3        30.11S
SAN ANTONIO    MOCLDY    53  51  93 CALM      30.14F
WACO           CLEAR     50  44  80 S7        30.10F
WICHITA FALLS  NOT AVBL
$$
...OTHER LOCATIONS IN NEW MEXICO...

CITY           SKY/WX    TMP DP  RH WIND       PRES   REMARKS
ALAMAGORDO     MOCLDY    50  34  53 N8        30.20S
ALBUQUERQUE    CLOUDY    44  30  57 NW6       30.29R
CANNON AFB     MOCLDY    43  34  69 NE18      30.24R WCI  35
CLOVIS         MOCLDY    43  32  65 NE16      30.25R WCI  35
HOLLOMAN AFB   MOCLDY    47  36  65 VRB6      30.18S
ROSWELL        MOCLDY    48  37  65 W7        30.19R
RUIDOSO        CLOUDY    45  32  61 NW3       30.33R
SANTA FE       CLOUDY    39  28  64 N7        30.29F WCI  34
TRUTH OR CONSE MOCLDY    47  32  56 N3        30.23S
TUCUMCARI      MOCLDY    41  33  73 CALM      30.31R
$$

USA.gov is the U.S. government's official web portal to all federal, state and local government web resources and services.